Location: Auckland
(36.8670°S, 174.7670°E)
Time: 10:25:30
(UTC+13:00)

Cosmos 2227 - Pass Details

Date: 24 January 2019
Orbit: 834 x 862 km, 71.0° (Epoch: 21 February)

Event Time Altitude Azimuth Distance (km) Brightness Sun altitude
Rises 21:32:57 0° 200° (SSW) 3,435 8.3 -10.4°
Reaches altitude 10° 21:35:27 10° 197° (SSW) 2,489 7.5 -10.8°
Maximum altitude 21:41:09 70° 113° (ESE) 897 4.2 -11.7°
Enters shadow 21:45:59 14° 30° (NNE) 2,162 5.8 -12.5°
